Weather History for North Bend, OR

Change the Weather History Date:

Wednesday, January 30, 2013

  Actual Average Record
Temperature  
Mean Temperature 44 °F 46 °F  
Max Temperature 48 °F 52 °F 68 °F (1931)
Min Temperature 39 °F 40 °F 21 °F (1950)
Degree Days  
Heating Degree Days 21 19  
Month to date heating degree days 613 572  
Since 1 July heating degree days 2488 2633  
Cooling Degree Days 0 0  
Month to date cooling degree days 0 0  
Year to date cooling degree days 0 0  
Moisture  
Dew Point 43 °F    
Average Humidity 97    
Maximum Humidity 100    
Minimum Humidity 92    
Precipitation  
Precipitation 0.00 in 0.29 in 2.93 in (1961)
Month to date precipitation 3.95 9.90  
Year to date precipitation 3.95 9.90  
Sea Level Pressure  
Sea Level Pressure 30.54 in    
Wind  
Wind Speed 4 mph (SE)    
Max Wind Speed 10 mph    
Max Gust Speed 12 mph    
Visibility 6 miles    
Events      
T = Trace of Precipitation, MM = Missing Value Source: NWS Daily Summary

Daily Weather History Graph

Daily Weather History Graph

Search for Another Location

Airport:

Trip Planner

Search our weather history database for the weather conditions in past years. The results will help you decide how hot, cold, wet, or windy it might be!

Date:

Astronomy

Jan. 30, 2013 Rise Set
Actual Time 7:34 AM PST 5:26 PM PST
Civil Twilight 7:04 AM PST 5:57 PM PST
Nautical Twilight 6:29 AM PST 6:31 PM PST
Astronomical Twilight 5:56 AM PST 7:04 PM PST
Moon 9:40 PM PST (1/30) 8:57 AM PST (1/30)
Length of Visible Light 10h 52m
Length of Day
9h 51m
Waning Gibbous, 87% of the Moon is Illuminated
Jan 30
Waning Gibbous
Feb 3
Last Quarter
Feb 9
New
Feb 17
First Quarter
Feb 25
Full

Hourly Weather History & Observations

Time (PST) Temp. Windchill Dew Point Humidity Pressure Visibility Wind Dir Wind Speed Gust Speed Precip Events Conditions
12:15 AM 41.0 °F - 41.0 °F 100% 30.56 in 8.0 mi Calm Calm - N/A   Overcast
12:35 AM 42.8 °F 41.1 °F 42.8 °F 100% 30.56 in 8.0 mi SSE 3.5 mph - N/A   Overcast
12:55 AM 41.0 °F 37.1 °F 39.2 °F 93% 30.57 in 1.0 mi ESE 5.8 mph - N/A   Overcast
1:15 AM 42.8 °F 40.1 °F 41.0 °F 93% 30.57 in 0.5 mi SSE 4.6 mph - N/A   Overcast
1:35 AM 42.8 °F 40.1 °F 42.8 °F 100% 30.57 in 0.2 mi SSE 4.6 mph - N/A   Overcast
1:55 AM 42.8 °F 39.3 °F 41.0 °F 93% 30.57 in 0.5 mi SE 5.8 mph - N/A   Overcast
2:15 AM 42.8 °F 38.6 °F 42.8 °F 100% 30.57 in 0.8 mi SE 6.9 mph - N/A   Overcast
2:35 AM 42.8 °F 40.1 °F 41.0 °F 93% 30.57 in 1.0 mi SE 4.6 mph - N/A   Overcast
2:55 AM 41.0 °F 36.4 °F 41.0 °F 100% 30.57 in 1.0 mi SSE 6.9 mph - N/A   Overcast
3:15 AM 41.0 °F 37.1 °F 41.0 °F 100% 30.57 in 9.0 mi SSE 5.8 mph - N/A   Overcast
3:35 AM 42.8 °F 38.6 °F 42.8 °F 100% 30.56 in 10.0 mi SE 6.9 mph - N/A   Overcast
3:55 AM 41.0 °F 35.8 °F 39.2 °F 93% 30.56 in 10.0 mi SSE 8.1 mph - N/A   Overcast
4:15 AM 41.0 °F 37.1 °F 39.2 °F 93% 30.56 in 10.0 mi SSE 5.8 mph - N/A   Overcast
4:35 AM 41.0 °F 35.8 °F 41.0 °F 100% 30.56 in 10.0 mi SSE 8.1 mph - N/A   Overcast
4:55 AM 41.0 °F 35.8 °F 41.0 °F 100% 30.56 in 10.0 mi SSE 8.1 mph - N/A   Overcast
5:15 AM 41.0 °F 35.2 °F 41.0 °F 100% 30.56 in 10.0 mi SSE 9.2 mph - N/A   Overcast
5:35 AM 41.0 °F 36.4 °F 41.0 °F 100% 30.56 in 10.0 mi SSE 6.9 mph - N/A   Overcast
5:55 AM 41.0 °F 35.2 °F 41.0 °F 100% 30.56 in 10.0 mi SSE 9.2 mph - N/A   Overcast
6:15 AM 41.0 °F 35.8 °F 41.0 °F 100% 30.56 in 10.0 mi SSE 8.1 mph - N/A   Overcast
6:35 AM 41.0 °F 35.8 °F 41.0 °F 100% 30.57 in 10.0 mi SSE 8.1 mph - N/A   Overcast
6:55 AM 41.0 °F 35.8 °F 41.0 °F 100% 30.57 in 10.0 mi SSE 8.1 mph - N/A   Overcast
7:15 AM 41.0 °F 35.2 °F 41.0 °F 100% 30.57 in 10.0 mi SSE 9.2 mph - N/A   Overcast
7:35 AM 41.0 °F 35.8 °F 41.0 °F 100% 30.57 in 10.0 mi SSE 8.1 mph - N/A   Overcast
7:55 AM 41.0 °F 34.7 °F 39.2 °F 93% 30.57 in 10.0 mi SSE 10.4 mph - N/A   Overcast
8:15 AM 42.8 °F 37.5 °F 42.8 °F 100% 30.58 in 10.0 mi SSE 9.2 mph - N/A   Overcast
8:35 AM 42.8 °F 37.5 °F 42.8 °F 100% 30.58 in 10.0 mi SSE 9.2 mph - N/A   Overcast
8:55 AM 42.8 °F 37.0 °F 41.0 °F 93% 30.58 in 10.0 mi SSE 10.4 mph - N/A   Overcast
9:15 AM 42.8 °F 37.5 °F 41.0 °F 93% 30.58 in 10.0 mi SSE 9.2 mph - N/A   Overcast
9:35 AM 42.8 °F 37.0 °F 42.8 °F 100% 30.57 in 10.0 mi SSE 10.4 mph - N/A   Overcast
9:55 AM 44.6 °F 39.7 °F 44.6 °F 100% 30.58 in 10.0 mi SSE 9.2 mph - N/A   Overcast
10:15 AM 44.6 °F 40.7 °F 44.6 °F 100% 30.58 in 10.0 mi SE 6.9 mph - N/A   Overcast
10:35 AM 44.6 °F 40.7 °F 44.6 °F 100% 30.58 in 10.0 mi SSE 6.9 mph - N/A   Overcast
10:55 AM 44.6 °F 41.4 °F 44.6 °F 100% 30.58 in 10.0 mi SE 5.8 mph - N/A   Overcast
11:15 AM 46.4 °F 43.5 °F 44.6 °F 93% 30.58 in 10.0 mi SE 5.8 mph - N/A   Overcast
11:35 AM 46.4 °F 43.5 °F 46.4 °F 100% 30.58 in 10.0 mi SSE 5.8 mph - N/A   Overcast
11:55 AM 48.2 °F - 46.4 °F 93% 30.57 in 10.0 mi SE 3.5 mph - N/A   Overcast
12:15 PM 48.2 °F - 46.4 °F 93% 30.56 in 8.0 mi Calm Calm - N/A   Overcast
12:35 PM 48.2 °F - 46.4 °F 93% 30.56 in 2.5 mi Calm Calm - N/A   Overcast
12:55 PM 48.2 °F - 46.4 °F 93% 30.56 in 3.0 mi Calm Calm - N/A   Overcast
1:15 PM 46.4 °F - 46.4 °F 100% 30.56 in 4.0 mi Calm Calm - N/A   Overcast
1:35 PM 48.2 °F - 48.2 °F 100% 30.55 in 2.0 mi Calm Calm - N/A   Overcast
1:55 PM 48.2 °F - 48.2 °F 100% 30.54 in 2.5 mi Calm Calm - N/A   Overcast
2:15 PM 48.2 °F - 46.4 °F 93% 30.54 in 4.0 mi Calm Calm - N/A   Overcast
2:35 PM 48.2 °F - 46.4 °F 93% 30.53 in 8.0 mi Calm Calm - N/A   Overcast
2:55 PM 48.2 °F - 46.4 °F 93% 30.54 in 10.0 mi Calm Calm - N/A   Overcast
3:15 PM 48.2 °F - 46.4 °F 93% 30.53 in 3.0 mi Calm Calm - N/A   Overcast
3:35 PM 48.2 °F - 48.2 °F 100% 30.53 in 2.0 mi Calm Calm - N/A   Overcast
3:55 PM 48.2 °F - 48.2 °F 100% 30.52 in 6.0 mi Calm Calm - N/A   Overcast
4:15 PM 48.2 °F - 48.2 °F 100% 30.52 in 8.0 mi NNW 3.5 mph - N/A   Overcast
4:35 PM 48.2 °F - 46.4 °F 93% 30.52 in 9.0 mi NNW 3.5 mph - N/A   Overcast
4:55 PM 48.2 °F - 46.4 °F 93% 30.52 in 9.0 mi North 3.5 mph - N/A   Overcast
5:15 PM 48.2 °F - 46.4 °F 93% 30.51 in 9.0 mi North 3.5 mph - N/A   Overcast
5:35 PM 48.2 °F - 46.4 °F 93% 30.51 in 10.0 mi Calm Calm - N/A   Overcast
5:55 PM 48.2 °F - 46.4 °F 93% 30.51 in 10.0 mi Calm Calm - N/A   Overcast
6:15 PM 48.2 °F - 48.2 °F 100% 30.50 in 10.0 mi Calm Calm - N/A   Mostly Cloudy
6:35 PM 48.2 °F - 48.2 °F 100% 30.50 in 9.0 mi Calm Calm - N/A   Partly Cloudy
6:55 PM 46.4 °F - 46.4 °F 100% 30.50 in 7.0 mi Calm Calm - N/A   Clear
7:15 PM 46.4 °F - 46.4 °F 100% 30.49 in 9.0 mi Calm Calm - N/A   Clear
7:35 PM 46.4 °F - 46.4 °F 100% 30.49 in 0.5 mi Calm Calm - N/A   Mostly Cloudy
7:55 PM 44.6 °F 43.1 °F 42.8 °F 93% 30.49 in 0.8 mi North 3.5 mph - N/A   Overcast
8:15 PM 42.8 °F - 41.0 °F 93% 30.49 in 0.2 mi Calm Calm - N/A   Overcast
8:35 PM 42.8 °F - 42.8 °F 100% 30.49 in 0.2 mi Calm Calm - N/A   Overcast
8:55 PM 42.8 °F - 42.8 °F 100% 30.50 in 0.2 mi Calm Calm - N/A   Overcast
9:15 PM 42.8 °F - 42.8 °F 100% 30.50 in 0.2 mi Calm Calm - N/A   Overcast
9:35 PM 41.0 °F - 41.0 °F 100% 30.49 in 0.2 mi Calm Calm - N/A   Overcast
9:55 PM 41.0 °F - 41.0 °F 100% 30.49 in 0.2 mi Calm Calm - N/A   Overcast
10:15 PM 41.0 °F - 41.0 °F 100% 30.49 in 0.2 mi Calm Calm - N/A   Overcast
10:35 PM 41.0 °F - 39.2 °F 93% 30.49 in 0.5 mi Calm Calm - N/A   Overcast
10:55 PM 39.2 °F - 39.2 °F 100% 30.49 in 0.2 mi Calm Calm - N/A   Overcast
11:15 PM 39.2 °F - 37.4 °F 93% 30.49 in 0.2 mi Calm Calm - N/A   Overcast
11:35 PM 39.2 °F - 37.4 °F 93% 30.49 in 0.5 mi Calm Calm - N/A   Overcast
11:55 PM 39.2 °F - 39.2 °F 100% 30.49 in 0.2 mi Calm Calm - N/A   Overcast